Regional Weather Roundup
Issued by NWS Northern Indiana

Home | Current Version | Previous Version | Text Only | Print | Product List | Glossary Off
Versions: 1 2 3 4 5 6 7 8 9 10 11 12 13 14 15 16 17 18 19 20 21 22 23 24 25 26 27 28 29 30 31 32 33 34 35 36 37 38 39 40 41 42 43 44 45 46 47 48 49 50

000
ASUS43 KIWX 200509
RWRIWX

KIWX WEATHER ROUNDUP
NATIONAL WEATHER SERVICE NORTHERN INDIANA
100 AM EDT FRI APR 20 2018

NOTE: "FAIR" INDICATES FEW OR NO CLOUDS BELOW 12,000 FEET WITH NO
SIGNIFICANT WEATHER AND/OR OBSTRUCTIONS TO VISIBILITY.

* THESE STATIONS ARE NOT UNDER NWS QUALITY CONTROL. THEY ALSO MAY NOT
  REPORT WEATHER SUCH AS PRECIPITATION OR FOG.

INZ001>027-200600-
NORTHERN INDIANA

CITY           SKY/WX    TMP DP  RH WIND       PRES   REMARKS
GARY*          FAIR      34  30  86 W5        30.45R WCI  30
VALPARAISO     FAIR      39  25  57 NW3       30.43R
MICHIGAN CITY* FAIR      37  28  70 CALM      30.44R
LAPORTE*       FAIR      34  26  74 NW7       30.43R WCI  28
KNOX*          FAIR      32  21  64 CALM      30.42R
SOUTH BEND     FAIR      28  22  78 NW6       30.42R WCI  22
GOSHEN         FAIR      35  21  56 N6        30.40R WCI  30
MONTICELLO*    FAIR      29  21  71 NW5       30.42R WCI  24
LOGANSPORT*    FAIR      32  19  59 N7        30.41S WCI  26
ROCHESTER*     FAIR      36  23  60 NW3       30.41R
WARSAW*        FAIR      32  23  69 N5        30.40R WCI  27
ANGOLA*        FAIR      36  23  60 NW6       30.38R WCI  31
FORT WAYNE     FAIR      35  24  64 N9        30.39R WCI  28
HUNTINGTON*    FAIR      35  20  54 N7        30.37S WCI  29
PERU/GRISSOM   FAIR      35  19  51 NW6       30.39R WCI  30
MARION*        FAIR      33  23  65 CALM      30.39S

$$
INZ028>050-200600-
CENTRAL INDIANA

CITY           SKY/WX    TMP DP  RH WIND       PRES   REMARKS
LAFAYETTE      FAIR      31  20  63 W3        30.42R
KOKOMO*        FAIR      34  21  59 NW6       30.40R WCI  29
MUNCIE*        FAIR      33  24  69 NW8       30.38R WCI  26
INDIANAPOLIS   FAIR      38  16  40 N9        30.39S WCI  31

$$
MIZ043>046-050>051-056>058-064>065-071>073-077>080-200600-
SOUTHWEST LOWER MICHIGAN

CITY           SKY/WX    TMP DP  RH WIND       PRES   REMARKS
BATTLE CREEK   FAIR      35  21  56 NW8       30.39R WCI  29
BENTON HARBOR  FAIR      30  25  81 CALM      30.43R
COLDWATER*     FAIR      34  24  65 NW6       30.38R WCI  29
HILLSDALE*     FAIR      34  19  55 NW7       30.35R WCI  28
HOLLAND        FAIR      31  25  78 W3        30.41R
GRAND RAPIDS   FAIR      37  20  50 NW8       30.39R WCI  31
KALAMAZOO      FAIR      35  18  49 N10       30.39R WCI  27
STURGIS*       FAIR      35  22  58 N7        30.38R WCI  29
THREE RIVERS*  FAIR      36  21  54 NW3       30.40R

$$
OHZ001>008-015>018-024>025-200600-
NORTHWEST OHIO

CITY           SKY/WX    TMP DP  RH WIND       PRES   REMARKS
DEFIANCE       FAIR      37  28  70 NW6       30.37R WCI  32
FINDLAY        FAIR      39  27  62 CALM      30.34R
TOLEDO EXPRESS FAIR      36  32  85 CALM      30.35R
TOLEDO METCALF FAIR      34  29  82 CALM      30.35R
LIMA           FAIR      37  30  75 NW8       30.34R WCI  31

$$
AND FOR LAKE MICHIGAN COASTAL AND OPEN LAKE BUOY OBSERVATIONS

STATION/POSITION TIME  TEMP    WIND        PRES    VSBY  WAVE
                       AIR SEA DIR/SP/G                  HT/PER
                 (UTC) (F)     (DEG/KT/KT) (MB)    (MI)  (FT/S)
CALUMET HARBOR   0448   41     280/  4/  6 1029.9R
MICHIGAN CITY    0440   39     300/ 10/ 11   N/A
BURNS HARBOR     0440   41     300/  6/  8 1031.2R
SAINT JOSEPH     0500   36      CALM  /  1 1030.8

$$
&&



USA.gov is the U.S. government's official web portal to all federal, state and local government web resources and services.